Kuwait, Kuwait

4:40 PM +03 on April 28, 2017 (GMT +0300)
Kuwait International

Weather History for OKBK - February, 2013

Change the Weather History Date:

Wednesday, February 13, 2013

  Actual Average Record
Temperature  
Mean Temperature 64 °F -  
Max Temperature 71 °F 73 °F 75 °F (2004)
Min Temperature 57 °F 51 °F 33 °F (2011)
Degree Days  
Heating Degree Days 1    
Growing Degree Days 14 (Base 50)    
Moisture  
Dew Point 37 °F    
Average Humidity 39    
Maximum Humidity 63    
Minimum Humidity 9    
Precipitation  
Precipitation 0.00 in 0.02 in - ()
Sea Level Pressure  
Sea Level Pressure 30.09 in    
Wind  
Wind Speed 15 mph ()    
Max Wind Speed 23 mph    
Max Gust Speed -    
Visibility 5.8 miles    
Events      
Averages and records for this station are not official NWS values.
T = Trace of Precipitation, MM = Missing Value Source: Averaged Metar Reports

Daily Weather History Graph

Daily Weather History Graph

Search for Another Location

Airport or City:

Trip Planner

Search our weather history database for the weather conditions in past years. The results will help you decide how hot, cold, wet, or windy it might be!

Date:

Astronomy

Feb. 13, 2013 Rise Set
Actual Time 6:28 AM +03 5:36 PM +03
Civil Twilight 6:04 AM +03 6:00 PM +03
Nautical Twilight 5:36 AM +03 6:28 PM +03
Astronomical Twilight 5:08 AM +03 6:56 PM +03
Moon 8:05 AM +03 (2/13) 8:53 PM +03 (2/13)
Length of Visible Light 11h 56m
Length of Day
11h 07m
Waxing Crescent, 11% of the Moon is Illuminated
Feb 13
Waxing Crescent
Feb 17
First Quarter
Feb 25
Full
Mar 5
Last Quarter
Mar 11
New

Hourly Weather History & Observations

Time (+03) Temp. Dew Point Humidity Pressure Visibility Wind Dir Wind Speed Gust Speed Precip Events Conditions
12:00 AM 64.4 °F 44.6 °F 49% 30.01 in 5.0 mi NNW 20.7 mph - N/A   Light Blowing Widespread Dust
1:00 AM 62.6 °F 46.4 °F 55% 30.04 in - North 17.3 mph - N/A   Clear
2:00 AM 60.8 °F 46.4 °F 59% 30.04 in - North 18.4 mph - N/A   Clear
3:00 AM 60 °F 47 °F 51% 30.05 in 6 mi North 18.4 mph - -  
3:00 AM 60.8 °F 46.4 °F 59% 30.04 in - North 18.4 mph - N/A   Clear
4:00 AM 59.0 °F 46.4 °F 63% 30.04 in - NNW 16.1 mph - N/A   Clear
5:00 AM 59.0 °F 44.6 °F 59% 30.06 in - NNW 16.1 mph - N/A   Clear
6:00 AM 57.2 °F 44.6 °F 63% 30.09 in - North 12.7 mph - N/A   Clear
7:00 AM 57.2 °F 42.8 °F 59% 30.09 in - NNW 10.4 mph - N/A   Clear
8:00 AM 59.0 °F 44.6 °F 59% 30.12 in - North 13.8 mph - N/A   Clear
9:00 AM 61 °F 43 °F 41% 30.15 in 6 mi North 18.4 mph - -  
9:00 AM 60.8 °F 42.8 °F 52% 30.15 in - North 18.4 mph - N/A   Clear
10:00 AM 62.6 °F 39.2 °F 42% 30.15 in - North 19.6 mph - N/A   Clear
11:00 AM 66.2 °F 35.6 °F 32% 30.12 in - North 17.3 mph - N/A   Clear
12:00 PM 68.0 °F 28.4 °F 23% 30.12 in - NNW 23.0 mph - N/A   Clear
1:00 PM 69.8 °F 28.4 °F 21% 30.09 in - North 20.7 mph - N/A   Clear
2:00 PM 69.8 °F 26.6 °F 20% 30.09 in - North 19.6 mph - N/A   Clear
3:00 PM 71 °F 24 °F 9% 30.08 in 6 mi North 18.4 mph - -  
3:00 PM 69.8 °F 24.8 °F 18% 30.06 in - North 18.4 mph - N/A   Clear
4:00 PM 69.8 °F 23.0 °F 17% 30.06 in - North 18.4 mph - N/A   Clear
5:00 PM 69.8 °F 26.6 °F 20% 30.06 in - NNW 17.3 mph - N/A   Clear
6:00 PM 66.2 °F 32.0 °F 28% 30.09 in - NNW 16.1 mph - N/A   Clear
7:00 PM 66.2 °F 30.2 °F 26% 30.09 in - NNW 16.1 mph - N/A   Clear
8:00 PM 64.4 °F 33.8 °F 32% 30.09 in - NNW 12.7 mph - N/A   Clear
9:00 PM 63 °F 35 °F 23% 30.12 in 6 mi NNW 12.7 mph - -  
9:00 PM 62.6 °F 33.8 °F 34% 30.12 in - NNW 12.7 mph - N/A   Clear
10:00 PM 62.6 °F 33.8 °F 34% 30.12 in - NNW 13.8 mph - N/A   Clear
11:00 PM 60.8 °F 37.4 °F 42% 30.12 in - North 13.8 mph - N/A   Clear